Tracking 28790 objects as of 19-Apr-2024
HD Live streaming from Space Station
objects crossing your sky now

COSMOS 2251 DEB

Track COSMOS 2251 DEB now!
10-day predictions


NORAD ID: 37971
Int'l Code: 1993-036BPW
Perigee: 720.6 km
Apogee: 837.7 km
Inclination: 74.0 °
Period: 100.3 minutes
Semi major axis: 7150 km
RCS: 0.0089 m2 (small)
Launch date: June 16, 1993
Source: Commonwealth of Independent States (former USSR) (CIS)
Launch site: PLESETSK MISSILE AND SPACE COMPLEX (PKMTR)

Note: This is SATELLITE DEBRIS
Your satellite tracking list
Your tracking list is empty




NASA's NSSDC Master Catalog

Two Line Element Set (TLE):
1 37971U 93036BPW 24108.33217975  .00007908  00000-0  26298-2 0  9993
2 37971  73.9970  86.8120 0081919   0.1167 359.9989 14.35918483752778
Source of the keplerian elements: AFSPC